Conroe, Texas, United States (77301)
Lat: 30.31N, Lon: 95.46W
Wx Zone: TXZ199
Local Info
Past Weather Observations for Today

NOTE: This archive is for the closest National Weather Service station to Conroe. Information may differ from the station used for current weather conditions.

Time Weather Temperature Dewpoint Humidity Pressure Winds Precip Visibility
18:53
Clear
73°F / 23°C 63°F / 17°C 69% 29.83 in
(1010 mb)
SE 10.4 mph
(SE 17 kph)
- 10SM
17:53
Clear
79°F / 26°C 61°F / 16°C 54% 29.83 in
(1010 mb)
SE 12.7 mph
(SE 20 kph)
- 10SM
16:53
Clear
81°F / 27°C 63°F / 17°C 54% 29.83 in
(1010 mb)
SE 11.5 mph
(SE 19 kph)
- 10SM
15:53
Partly Cloudy
82°F / 28°C 63°F / 17°C 51% 29.86 in
(1011 mb)
SSE 16.1 mph
(SSE 26 kph)
- 10SM
14:53
Partly Cloudy
82°F / 28°C 61°F / 16°C 48% 29.89 in
(1012 mb)
SE 10.4 mph
(SE 17 kph)
- 10SM
13:53
Partly Cloudy
82°F / 28°C 63°F / 17°C 51% 29.92 in
(1013 mb)
SSE 13.8 mph
(SSE 22 kph)
- 10SM
12:53
Partly Cloudy
81°F / 27°C 64°F / 18°C 58% 29.92 in
(1013 mb)
S 10.4 mph
(S 17 kph)
- 10SM
11:53
Mostly Cloudy
82°F / 28°C 64°F / 18°C 55% 29.95 in
(1014 mb)
SE 13.8 mph
(SE 22 kph)
- 10SM
10:53
Partly Cloudy
82°F / 28°C 64°F / 18°C 55% 29.98 in
(1015 mb)
SE 10.4 mph
(SE 17 kph)
- 10SM
10:08
Mostly Cloudy
75°F / 24°C 66°F / 19°C 74% 29.98 in
(1015 mb)
E 5.8 mph
(E 9 kph)
- 10SM
09:53
Mostly Cloudy
77°F / 25°C 66°F / 19°C 69% 29.98 in
(1015 mb)
Variable 6.9 mph
(Variable 11 kph)
- 10SM
09:33
Mostly Cloudy
73°F / 23°C 66°F / 19°C 78% 29.98 in
(1015 mb)
SSE 4.6 mph
(SSE 7 kph)
- 10SM
08:53
Clear
73°F / 23°C 66°F / 19°C 78% 29.98 in
(1015 mb)
Variable 3.5 mph
(Variable 6 kph)
- 10SM
08:02
Partly Cloudy
66°F / 19°C 66°F / 19°C 100% 29.98 in
(1015 mb)
Calm - 10SM
07:53
Mostly Cloudy
66°F / 19°C 64°F / 18°C 94% 29.98 in
(1015 mb)
Calm - 7SM
07:48
Mostly Cloudy
Fog And Mist
64°F / 18°C 64°F / 18°C 100% 29.98 in
(1015 mb)
Calm - 6SM
07:40
Overcast
Fog And Mist
64°F / 18°C 64°F / 18°C 100% 29.98 in
(1015 mb)
Calm - 1 1/4SM
06:53
Obscured
Fog
61°F / 16°C 61°F / 16°C 100% 29.98 in
(1015 mb)
Calm - M1/4SM
06:01
Overcast
Fog
57°F / 14°C 55°F / 13°C 94% 29.98 in
(1015 mb)
Calm - 1/4SM
05:53
Overcast
55°F / 13°C 55°F / 13°C 100% 29.95 in
(1014 mb)
Calm - 9SM
05:36
Overcast
55°F / 13°C 55°F / 13°C 100% 29.95 in
(1014 mb)
Calm - 10SM
05:24
Mostly Cloudy
55°F / 13°C 55°F / 13°C 100% 29.95 in
(1014 mb)
Calm - 10SM
05:13
Partly Cloudy
55°F / 13°C 55°F / 13°C 100% 29.95 in
(1014 mb)
Calm - 10SM
04:53
Partly Cloudy
55°F / 13°C 55°F / 13°C 100% 29.95 in
(1014 mb)
Calm - 10SM
03:53
Mostly Cloudy
57°F / 14°C 55°F / 13°C 94% 29.95 in
(1014 mb)
Calm - 10SM
02:53
Clear
57°F / 14°C 55°F / 13°C 94% 29.95 in
(1014 mb)
Calm - 10SM
01:53
Clear
57°F / 14°C 57°F / 14°C 100% 29.95 in
(1014 mb)
Calm - 10SM
00:53
Clear
59°F / 15°C 57°F / 14°C 94% 29.98 in
(1015 mb)
Calm - 10SM
Time Weather Temperature Dewpoint Humidity Pressure Winds Precip Visibility


Weather for websites

WeatherForYou.com, LLC is not responsible for any damages or problems caused by this service. Current weather conditions are obtained from the closest station including government and personal stations which may have varying degrees of accuracy. Weather forecasts are derived from the NOAA NDFD. Like all things, this site belongs to Jesus Christ... He just trusts me to maintain it. If you have any questions or comments email webmaster@weatherforyou.com

Copyright © 2014, WeatherForYou.com LLC. All rights reserved.